Regional Weather Roundup
Issued by NWS Wakefield, VA

Home | Current Version | Previous Version | Text Only | Print | Product List | Glossary Off
Versions: 1 2 3 4 5 6 7 8 9 10 11 12 13 14 15 16 17 18 19 20 21 22 23 24 25 26 27 28 29 30 31 32 33 34 35 36 37 38 39 40 41 42 43 44 45 46 47 48 49 50

000
ASUS41 KAKQ 271510
RWRAKQ

REGIONAL WEATHER ROUNDUP
NATIONAL WEATHER SERVICE WAKEFIELD VA
1000 AM EST FRI FEB 27 2015

Note: "fair" indicates few or no clouds below 12,000 feet with no
significant weather and/or obstructions to visibility. * = Denotes
station may not report precipitation (e.g., rain,snow,etc.),
thunder or fog.

VAZ042-051-052>054-056-271600-
NORTHERN VIRGINIA

CITY           SKY/WX    TMP DP  RH WIND       PRES   REMARKS
WASH NATIONAL  PTSUNNY   32  10  40 NW15      30.43R WCI  22
DULLES         FAIR      25   8  48 NW16      30.41R WCI  12
FORT BELVOIR   CLOUDY    29  11  47 NW13      30.42R WCI  19
QUANTICO       CLOUDY    30  14  51 NE12      30.44R WCI  20
FREDERICKSBRG* CLOUDY    31  21  65 N8        30.40R
STAFFORD*      CLOUDY    29  13  52 N14       30.45R WCI  18
WARRENTON      PTSUNNY   31  18  59 N10       30.41R WCI  22
CULPEPER*      SUNNY     28  14  54 N13       30.41R WCI  18
MANASSAS*      NOT AVBL
LEESBURG*      SUNNY     27  12  54 N10       30.42R WCI  17
WINCHESTER     MOSUNNY   27   3  36 N6        30.41R
FRONT ROYAL*   FAIR      23   9  54 N7        30.39R
LURAY*         FAIR      32  18  55 NE5       30.36S
$$

VAZ048-049-060>072-079>083-271600-
CENTRAL AND SOUTH CENTRAL VIRGINIA

CITY           SKY/WX    TMP DP  RH WIND       PRES   REMARKS
RICHMOND       CLOUDY    36  28  73 N7        30.36R
CHESTERFIELD*  PTSUNNY   36  21  55 N7        30.37R
PETERSBURG*    SUNNY     37  31  81 NW6       30.37R
HANOVER        CLOUDY    33  26  75 N9        30.39R
TAPPAHANNOCK*  LGT SNOW  30  24  79 CALM      30.39R
QUINTON*       FAIR      34  29  80 NW5       30.37R
CHARLOTTSVILLE SUNNY     33  20  58 N5        30.35R
GORDONSVILLE*  FAIR      29  18  62 NE8       30.38R
ORANGE*        SUNNY     30  18  59 N7        30.40R
LOUISA*        CLOUDY    32  21  64 NE8       30.36R
BUMPASS*       CLOUDY    32  22  67 N5        30.37R
FARMVILLE*     SUNNY     39  32  75 NE3       30.36R
CREWE*         FAIR      35  24  64 NW10      30.35R
FORT PICKETT*  FAIR      33  27  79 N8        30.35R
CHASE CITY*    FAIR      37  25  62 NW6       30.36R
CLARKSVILLE*   FAIR      34  25  69 N5        30.36R
SOUTH HILL*    SUNNY     35  25  65 NW5       30.41R
LAWRENCEVILLE* FAIR      37  27  69 NW6       30.35R
EMPORIA*         N/A     34  32  93 SW3       30.38R
$$

VAZ088>098-271600-
SOUTHEAST VIRGINIA

CITY           SKY/WX    TMP DP  RH WIND       PRES   REMARKS
NORFOLK        SUNNY     34  23  64 NE3       30.36R
VIRGINIA BEACH MOSUNNY   34  24  67 CALM      30.36S
NORFOLK NAVAL  MOSUNNY   37  26  64 N3        30.38R
WEST POINT*    CLOUDY    35  27  72 CALM      30.39R
SALUDA*        CLOUDY    31  24  75 CALM      30.37R
NEWPORT NEWS   SUNNY     34  26  72 CALM      30.36S
LANGLEY AFB    SUNNY     30  27  87 E3        30.36S
FORT EUSTIS    SUNNY     34  31  89 CALM      30.35R
WILLIAMSBURG*  MOSUNNY   37  30  75 CALM      30.37R
HR EXEC AP*    FAIR      36  27  69 CALM      30.39R
FRANKLIN*      SUNNY     32  29  90 CALM      30.37R
WAKEFIELD      SUNNY     36  28  73 CALM      30.37R
$$

VAZ020-022-025-037-045-271600-
WEST CENTRAL AND SOUTHWEST VIRGINIA

CITY           SKY/WX    TMP DP  RH WIND       PRES   REMARKS
STAUNTON*      SUNNY     28  15  60 NE6       30.35S
WAYNESBORO*    FAIR      28  13  52 W3        30.32S
HOT SPRINGS VA MOSUNNY   17  10  74 W12       30.15S WCI   4
LYNCHBURG      SUNNY     33  15  47 VRB5      30.37R
DANVILLE       SUNNY     35  19  52 N14       30.38R
SOUTH BOSTON*  FAIR      33  22  63 NW6       30.38R
MARTINSVILLE   SUNNY     35  19  53 N7        30.38S
ROANOKE        MOSUNNY   29  12  49 W10       30.38R WCI  20
BLACKSBURG     PTSUNNY   23  13  64 W9        30.34R
DUBLIN*        CLOUDY    28  16  58 W9        30.33R
MARION*        CLOUDY    24  14  66 W10       30.32R WCI  13
HILLSVILLE*    LGT SNOW  23  18  80 NW10      30.27R WCI  12
RICHLANDS*     LGT SNOW  18  12  79 N6        30.32R
WISE*          LGT SNOW  19  12  73 NW5       30.34R
ABINGDON*      CLOUDY    26  15  64 NW8       30.35R
$$

MDZ021>025-VAZ099-100-271600-
SOUTHERN MARYLAND AND THE DELMARVA PENINSULA

CITY           SKY/WX    TMP DP  RH WIND       PRES   REMARKS
PATUXENT RIVER PTSUNNY   31  25  78 NW6       30.38S
BAY BRIDGE APT LGT SNOW  28  25  86 N9G16     30.40R
LEONARDTOWN    CLOUDY    32  25  74 CALM      30.40R
DOVER          MOSUNNY   27  22  80 N9        30.39S
GEORGETOWN     SUNNY     36  17  46 N9        30.38S
EASTON         CLOUDY    32  27  80 CALM      30.42R
CAMBRIDGE      MOSUNNY   32  25  74 N5        30.38S
SALISBURY      CLOUDY    33  20  58 N6        30.37R
OCEAN CITY     SUNNY     31  23  72 N10       30.37S WCI  22
WALLOPS ISLAND CLOUDY    31  23  72 N6        30.37R
ACCOMACK*      PTSUNNY  N/A N/A N/A CALM      30.36S
$$

NCZ012>017-030>032-271600-
NORTH CENTRAL AND EASTERN NORTH CAROLINA

CITY           SKY/WX    TMP DP  RH WIND       PRES   REMARKS
ROANOKE RAPIDS FAIR      34  32  93 CALM      30.37R
RALEIGH        MOSUNNY   36  26  67 N7        30.37R
ELIZABETH CITY SUNNY     36  26  67 N6        30.37R
AHOSKIE*       SUNNY     33  29  84 CALM      30.37S
EDENTON*       SUNNY     35  27  72 N5        30.36S
CURRITUCK*     SUNNY     35  26  68 N5        30.37S
KILL DEVIL HLS SUNNY     38  31  76 N7        30.34R
MANTEO         SUNNY     37  28  70 N13       30.35S
CAPE HATTERAS  PTSUNNY   38  32  79 VRB6      30.33R
TARBORO*       FAIR      36  35  95 CALM      30.38R
GOLDSBORO      SUNNY     39  38  97 CALM      30.35R
WASHINGTON     SUNNY     36  29  76 N6        30.37S
GREENVILLE     SUNNY     36  32  87 N5        30.37S
NEW BERN       MOSUNNY   37  28  70 N8        30.37R
WILMINGTON     PTSUNNY   40  30  67 NE9       30.35R
$$

VAZ048-271600-
ELSEWHERE

CITY           SKY/WX    TMP DP  RH WIND       PRES   REMARKS
HARRISBURG PA  MOSUNNY   19   5  54 N9        30.44R
BALTIMORE      CLOUDY    28  17  63 N9        30.40R
ANNAPOLIS      LGT SNOW  27  22  81 NE12      30.41R WCI  17
ANDREWS AFB    PTSUNNY   29  14  52 N14       30.39R WCI  18
PHILADELPHIA   CLOUDY    24  14  65 VRB6      30.42R
HENDERSON NC   SUNNY     36  22  57 NW7       30.36R
GREENSBORO     CLOUDY    32  23  69 N8        30.34R
ROCKY MOUNT    SUNNY     35  31  85 NW7       30.37R
$$

VAZ100-271600-
MARINE

STATION/POSITION TIME  TEMP    WIND        PRES    WAVE   SWELL
                       AIR SEA DIR/SP/G            HT/PER HT/PER
                 (UTC) (F)     (DEG/KT/KT) (MB)    (FT/S) (FT/S)
BRANDYWINE LGT   1500   25 29   40/ 11/ 12 1028.6F
CAPE MAY NJ      1500   28 32   10/  5/  7 1028.1F
LEWES DE         1500   25 30   10/ 12/ 12 1028.5F
15NM E FENWICK I 1500   31 36              1027.8R   5/ 8
OCEAN-CITY-INLET 1500   29 31   20/  8/ 12 1027.9S
WACHAPREAGUE VA  1500   30 31   40/  4/  5 1027.9S
THOMAS POINT MD  1500   27 31   20/ 16/ 17 1030.7R
COVE POINT MD    1500   28     350/  7/  8 1028.7R
SOLOMONS ISLAND  1500      32                N/A
BISHOPS HEAD MD  1500   30 31  330/  6/  8 1028.3R
CAMBRIDGE MD     1500   30 32  320/  4/  4 1028.7R
LEWISETTA VA     1500   28 31              1028.7R
RAPPAHANNOCK LGT 1500          350/  4/  4 1028.7S
STINGRAY PT      1500   31      50/  4/  4   N/A
YORK RVR RNG VA  1500   31     360/  3/  4 1027.6R
YORKTOWN VA      1500   32 32   90/  2/  3 1027.9R
DOMINION TERM VA 1500   34     100/  1/  3 1028.1R
KIPTOPEKE VA     1500           10/  4/  6   N/A
CHES BAY BRIDGE  1500   31 32   40/  3/  3 1027.7R
CAPE HENRY VA    1500   33      40/  3/  4 1026.5F
CHESAPEAKE LGHT  1400   33      30/  8/  8 1028.2R
WILLOUBY STN VA  1500   32      30/  2/  2 1028.5R
S CRANEY ISL VA  1500          320/  2/  3 1028.2R
CAPE HENRY BUOY  1500      35                N/A     5/11   3/11
1ST LANDING BUOY 1500   32      40/  4/  4 1027.5S
OFFSHORE WE BUOY 1500      38                N/A     6/11   5/11
64NM E OF VA BCH 1500   42 59   10/ 16/ 19 1026.4R   8/11   7/11
DUCK PIER NC     1500   34 34   20/  9/ 11 1026.8R
44100 DUCK FRF   1500      36                N/A     7/11   3/11
44056 DUCK FRF   1500      35                N/A     6/11   3/11
OREGON INLET NC  1500   36 36  340/ 12/ 15 1027.3R
HATTERAS NC      1500   35 40  350/ 15/ 17 1027.2R
CAPE LOOKOUT NC  1500   38      10/ 13/ 15 1027.2R
$$


USA.gov is the U.S. government's official web portal to all federal, state and local government web resources and services.